Regional Weather Roundup
Issued by NWS Little Rock, AR

Home | Current Version | Previous Version | Graphics & Text | Print | Product List | Glossary On
Versions: 1 2 3 4 5 6 7 8 9 10 11 12 13 14 15 16 17 18 19 20 21 22 23 24 25 26 27 28 29 30 31 32 33 34 35 36 37 38 39 40 41 42 43 44 45 46 47 48 49 50
000
ASUS44 KLZK 151905
RWRLZK

WEATHER ROUNDUP FOR ARKANSAS
NATIONAL WEATHER SERVICE LITTLE ROCK AR
200 PM CDT MON SEP 15 2014

NOTE: "FAIR" INDICATES FEW OR NO CLOUDS BELOW 12,000 FEET WITH NO
SIGNIFICANT WEATHER AND/OR OBSTRUCTIONS TO VISIBILITY.

ARZ001-003-010-029-152000-
NORTHWEST ARKANSAS

CITY           SKY/WX    TMP DP  RH WIND       PRES   REMARKS
FAYETTEVILLE   CLOUDY    73  66  78 S13       30.17F
FORT SMITH     CLOUDY    74  65  73 CALM      30.16F
HARRISON       CLOUDY    75  66  73 W10       30.16F
BENTONVILLE    PTSUNNY   75  66  73 SW9       30.17F
ROGERS         PTSUNNY   76  66  71 SW13      30.17F
SILOAM SPGS    PTSUNNY   73  63  68 SW9       30.18F
HIGHFILL       PTSUNNY   74  66  76 SW9       30.16F
SPRINGDALE     PTSUNNY   73  66  78 SW12      30.19F
$$

ARZ004-005-016-152000-
NORTH CENTRAL ARKANSAS

CITY           SKY/WX    TMP DP  RH WIND       PRES   REMARKS
BATESVILLE     CLOUDY    72  66  83 SW3       30.14F
FLIPPIN        CLOUDY    73  63  68 SW5       30.14F
MTN HOME       LGT RAIN  72  67  84 CALM      30.14F
$$

ARZ040-041-152000-
WEST CENTRAL ARKANSAS

CITY           SKY/WX    TMP DP  RH WIND       PRES   REMARKS
MENA             N/A     75  68  78 CALM      30.18F
MOUNT IDA      CLOUDY    75  66  73 CALM      30.15F
$$

ARZ009-017-025-026-028-152000-
NORTHEAST ARKANSAS

CITY           SKY/WX    TMP DP  RH WIND       PRES   REMARKS
CORNING          N/A     72  63  73 S9        30.13F
JONESBORO      CLOUDY    73  63  70 SW7       30.13F
NEWPORT        PTSUNNY   79  64  59 SW5       30.14F
WALNUT RIDGE   CLOUDY    66  63  88 SW7       30.13F
BLYTHEVILLE    CLOUDY    74  62  66 SW5       30.14F
NW BLYTHEVILLE PTSUNNY   75  63  64 S5        30.13F
$$

ARZ022-023-033-042-044-152000-
CENTRAL ARKANSAS

CITY           SKY/WX    TMP DP  RH WIND       PRES   REMARKS
LITTLE ROCK    CLOUDY    77  60  55 SW3       30.15F
N LITTLE ROCK  CLOUDY    74  65  73 CALM      30.15F
JACKSONVILLE   CLOUDY    76  61  60 SW1       30.15F
SEARCY         CLOUDY    76  64  66 S6        30.15F
HOT SPRINGS    CLOUDY    76  62  62 CALM      30.17S
RUSSELLVILLE   CLOUDY    73  63  70 CALM      30.15F
CLINTON        FAIR      73  66  78 W3        30.16F
$$

ARZ036-152000-
EAST ARKANSAS

CITY           SKY/WX    TMP DP  RH WIND       PRES   REMARKS
WEST MEMPHIS   MOSUNNY   80  63  55 CALM      30.12F
$$

ARZ050-053-066-070-073-152000-
SOUTHWEST ARKANSAS

CITY           SKY/WX    TMP DP  RH WIND       PRES   REMARKS
ARKADELPHIA    FAIR      76  65  68 NW3       30.16F
CAMDEN         CLOUDY    82  66  57 CALM      30.14F HX  85
TEXARKANA      PTSUNNY   80  67  64 VRB3      30.14F
EL DORADO      CLOUDY    80  67  64 N5        30.14F
DE QUEEN       CLOUDY    76  66  71 CALM      30.15F
$$

ARZ056-057-069-152000-
SOUTHEAST ARKANSAS

CITY           SKY/WX    TMP DP  RH WIND       PRES   REMARKS
PINE BLUFF     CLOUDY    80  64  58 E3        30.15S
STUTTGART      CLOUDY    79  63  57 N3        30.15F
MONTICELLO     CLOUDY    80  65  59 CALM      30.14F

$$





USA.gov is the U.S. government's official web portal to all federal, state and local government web resources and services.